TimeICT,TemperatureF,Dew PointF,Humidity,Sea Level PressureIn,VisibilityMPH,Wind Direction,Wind SpeedMPH,Gust SpeedMPH,PrecipitationIn,Events,Conditions,WindDirDegrees,DateUTC
6:00 AM,78.8,75.2,89,29.77,6.2,WSW,3.5,-,N/A,,Partly Cloudy,240,2012-10-03 23:00:00
7:00 AM,78,77,97,29.80,6,Calm,Calm,,,,Partly Cloudy,,2012-10-04 00:00:00
7:00 AM,80.6,75.2,84,29.80,6.2,WSW,4.6,-,N/A,,Scattered Clouds,240,2012-10-04 00:00:00
7:30 AM,80.6,73.4,79,29.83,6.2,WSW,4.6,-,N/A,,Scattered Clouds,240,2012-10-04 00:30:00
8:00 AM,82.4,73.4,74,29.83,6.2,WSW,3.5,-,N/A,,Partly Cloudy,250,2012-10-04 01:00:00
8:30 AM,82.4,73.4,74,29.83,6.2,WNW,4.6,-,N/A,,Scattered Clouds,300,2012-10-04 01:30:00
9:00 AM,84.2,73.4,70,29.83,6.2,WSW,6.9,-,N/A,,Scattered Clouds,240,2012-10-04 02:00:00
9:30 AM,84.2,73.4,70,29.83,6.2,WSW,6.9,-,N/A,,Partly Cloudy,240,2012-10-04 02:30:00
10:00 AM,86.0,73.4,66,29.86,6.2,WNW,6.9,-,N/A,,Partly Cloudy,300,2012-10-04 03:00:00
10:30 AM,87.8,73.4,62,29.86,6.2,WNW,3.5,-,N/A,,Partly Cloudy,300,2012-10-04 03:30:00
11:00 AM,87.8,73.4,62,29.83,6.2,West,10.4,-,N/A,,Scattered Clouds,270,2012-10-04 04:00:00
11:30 AM,87.8,71.6,58,29.83,6.2,WNW,3.5,-,N/A,,Scattered Clouds,300,2012-10-04 04:30:00
12:00 PM,87.8,71.6,58,29.80,6.2,Variable,6.9,-,N/A,,Partly Cloudy,0,2012-10-04 05:00:00
12:30 PM,89.6,73.4,59,29.80,6.2,WSW,4.6,-,N/A,,Partly Cloudy,240,2012-10-04 05:30:00
1:00 PM,89.6,73.4,59,29.77,6.2,WNW,8.1,-,N/A,,Partly Cloudy,300,2012-10-04 06:00:00
1:30 PM,91.4,73.4,55,29.77,6.2,NNW,3.5,-,N/A,,Partly Cloudy,330,2012-10-04 06:30:00
2:00 PM,91.4,73.4,55,29.74,6.2,WSW,6.9,-,N/A,,Partly Cloudy,250,2012-10-04 07:00:00
2:30 PM,91.4,71.6,52,29.71,6.2,NNW,3.5,-,N/A,,Partly Cloudy,340,2012-10-04 07:30:00
3:00 PM,87.8,73.4,62,29.71,6.2,ESE,10.4,-,N/A,,Mostly Cloudy,120,2012-10-04 08:00:00
3:30 PM,80.6,71.6,74,29.71,3.7,SE,6.9,-,N/A,Rain-Thunderstorm,Thunderstorms and Rain,130,2012-10-04 08:30:00
4:00 PM,82.4,73.4,74,29.71,5.6,SSE,4.6,-,N/A,,Mostly Cloudy,160,2012-10-04 09:00:00
4:30 PM,84.2,75.2,74,29.71,6.2,South,3.5,-,N/A,,Scattered Clouds,170,2012-10-04 09:30:00
5:00 PM,84.2,75.2,74,29.71,6.2,South,4.6,-,N/A,,Scattered Clouds,170,2012-10-04 10:00:00
5:30 PM,84.2,75.2,74,29.74,4.3,West,19.6,-,N/A,Rain,Rain,260,2012-10-04 10:30:00
6:00 PM,82.4,71.6,70,29.74,5.0,WSW,12.7,-,N/A,Rain,Rain,240,2012-10-04 11:00:00
6:30 PM,80.6,71.6,74,29.77,5.0,WNW,4.6,-,N/A,,Mostly Cloudy,290,2012-10-04 11:30:00
7:00 PM,82.4,73.4,74,29.77,5.0,SSE,4.6,-,N/A,,Mostly Cloudy,160,2012-10-04 12:00:00
7:30 PM,82.4,73.4,74,29.80,5.0,West,2.3,-,N/A,,Mostly Cloudy,270,2012-10-04 12:30:00
8:00 PM,82.4,71.6,70,29.80,5.0,WNW,3.5,-,N/A,,Mostly Cloudy,290,2012-10-04 13:00:00
8:30 PM,82.4,71.6,70,29.83,5.0,East,2.3,-,N/A,,Mostly Cloudy,100,2012-10-04 13:30:00
9:00 PM,80.6,71.6,74,29.83,5.0,East,2.3,-,N/A,,Mostly Cloudy,90,2012-10-04 14:00:00
9:30 PM,82.4,73.4,74,29.83,5.0,Calm,Calm,-,N/A,,Scattered Clouds,0,2012-10-04 14:30:00
10:00 PM,82.4,73.4,74,29.83,5.0,NNE,2.3,-,N/A,,Scattered Clouds,30,2012-10-04 15:00:00
10:30 PM,82.4,73.4,74,29.83,5.0,East,3.5,-,N/A,,Scattered Clouds,80,2012-10-04 15:30:00
11:00 PM,82.4,73.4,74,29.83,5.0,SE,2.3,-,N/A,,Scattered Clouds,140,2012-10-04 16:00:00